Date,TemperatureHighF,TemperatureAvgF,TemperatureLowF,DewpointHighF,DewpointAvgF,DewpointLowF,HumidityHigh,HumidityAvg,HumidityLow,PressureMaxIn,PressureMinIn,WindSpeedMaxMPH,WindSpeedAvgMPH,GustSpeedMaxMPH,PrecipitationSumIn
2013-1-1,59.0,47.5,36.0,27.0,24.3,22.0,64,42,26,0.00,40.00,10,3,10,0.00
2013-1-2,62.0,50.9,43.0,24.0,20.1,17.0,40,30,18,0.00,40.00,10,4,12,0.00
2013-1-3,64.0,53.2,45.0,23.0,18.1,13.0,38,26,14,0.00,40.00,11,4,16,0.00
2013-1-4,65.0,52.1,41.0,24.0,19.4,15.0,48,28,18,0.00,40.00,11,3,14,0.00
2013-1-5,63.0,48.2,35.0,24.0,21.8,17.0,57,38,21,0.00,40.00,10,2,10,0.00
2013-1-6,69.0,50.6,37.0,36.0,28.1,21.0,61,44,16,0.00,40.00,10,2,10,0.00
2013-1-7,64.0,53.5,45.0,45.0,33.0,26.0,75,49,26,0.00,40.00,10,3,13,0.00
2013-1-8,73.0,58.3,43.0,31.0,24.0,19.0,44,29,13,0.00,40.00,13,3,13,0.00
2013-1-9,73.0,60.1,48.0,32.0,27.9,23.0,52,31,16,0.00,40.00,10,2,10,0.00
2013-1-10,64.0,55.5,47.0,46.0,32.6,26.0,59,42,24,0.00,40.00,15,5,18,0.00
2013-1-11,59.0,47.5,36.0,34.0,25.2,19.0,65,44,21,0.00,40.00,9,2,9,0.00
2013-1-12,58.0,45.5,36.0,29.0,21.3,16.0,64,41,19,0.00,40.00,9,2,10,0.00
2013-1-13,58.0,45.0,32.0,17.0,12.4,8.0,48,28,15,0.00,40.00,7,2,9,0.00
2013-1-14,49.0,42.2,36.0,13.0,6.7,2.0,29,23,16,0.00,40.00,16,8,17,0.00
2013-1-15,53.0,42.9,34.0,16.0,8.4,4.0,41,25,13,0.00,40.00,10,4,13,0.00
2013-1-16,63.0,49.6,37.0,25.0,20.2,16.0,44,32,19,0.00,40.00,9,3,11,0.00
2013-1-17,71.0,57.0,44.0,27.0,23.3,20.0,45,29,15,0.00,40.00,12,3,12,0.00
2013-1-18,75.0,59.1,46.0,27.0,23.0,20.0,38,26,13,0.00,40.00,10,3,10,0.00
2013-1-19,74.0,60.2,49.0,27.0,22.7,20.0,35,25,13,0.00,40.00,9,3,10,0.00
2013-1-20,75.0,59.6,47.0,26.0,20.6,17.0,36,24,12,0.00,40.00,9,2,9,0.00
2013-1-21,77.0,62.1,48.0,22.0,15.1,10.0,31,18,8,0.00,40.00,10,3,11,0.00
2013-1-22,78.0,63.0,50.0,23.0,16.3,11.0,28,17,9,0.00,40.00,12,3,13,0.00
2013-1-23,80.0,68.5,55.0,32.0,23.2,17.0,29,19,11,0.00,40.00,11,4,13,0.00
2013-1-24,71.0,65.5,60.0,50.0,44.2,31.0,68,47,26,0.00,40.00,10,3,10,0.00
2013-1-25,70.0,64.1,58.0,58.0,51.7,47.0,99,66,51,0.00,40.00,8,4,10,0.14
2013-1-26,64.0,59.1,57.0,60.0,58.3,57.0,100,97,86,0.00,40.00,9,4,10,0.31
2013-1-27,70.0,60.8,54.0,65.0,56.6,44.0,100,87,61,0.00,40.00,10,3,11,0.31
2013-1-28,63.0,52.9,44.0,44.0,38.9,34.0,78,60,34,0.00,40.00,13,4,17,0.09
2013-1-29,63.0,51.1,38.0,41.0,36.9,34.0,87,61,37,0.00,40.00,8,2,8,0.09
2013-1-30,70.0,55.2,41.0,48.0,38.2,33.0,90,57,27,0.00,40.00,8,2,11,0.00
2013-1-31,73.0,61.1,45.0,42.0,38.9,35.0,71,46,27,0.00,40.00,9,3,9,0.00
2013-2-1,76.0,59.9,42.0,47.0,39.0,34.0,87,51,22,0.00,40.00,9,2,10,0.00
2013-2-2,79.0,64.1,53.0,42.0,39.3,34.0,66,43,23,0.00,40.00,10,3,12,0.00
2013-2-3,78.0,66.7,59.0,44.0,41.0,37.0,54,40,26,0.00,40.00,10,3,12,0.00
2013-2-4,79.0,63.7,51.0,50.0,41.5,38.0,71,48,24,0.00,40.00,7,2,9,0.00
2013-2-5,82.0,65.4,51.0,48.0,40.4,37.0,64,42,24,0.00,40.00,8,1,8,0.00
2013-2-6,79.0,65.7,53.0,44.0,39.0,35.0,58,39,21,0.00,40.00,9,2,9,0.00
2013-2-7,79.0,64.9,48.0,54.0,41.2,29.0,80,47,19,0.00,40.00,13,2,13,0.00
2013-2-8,68.0,58.6,49.0,43.0,36.3,30.0,66,45,24,0.00,40.00,13,6,14,0.00
2013-2-9,62.0,51.5,42.0,38.0,34.7,32.0,74,54,35,0.00,40.00,11,3,14,0.00
2013-2-10,65.0,52.6,43.0,37.0,33.1,30.0,66,49,31,0.00,40.00,8,2,10,0.00
2013-2-11,60.0,51.2,42.0,40.0,30.2,22.0,75,47,25,0.00,40.00,14,4,14,0.00
2013-2-12,65.0,50.4,37.0,26.0,19.5,13.0,51,32,14,0.00,40.00,9,2,10,0.00
2013-2-13,70.0,54.2,39.0,28.0,22.3,18.0,44,31,16,0.00,40.00,11,2,16,0.00
2013-2-14,76.0,59.6,42.0,33.0,28.5,25.0,52,33,16,0.00,40.00,10,3,11,0.00
2013-2-15,79.0,65.7,55.0,33.0,26.2,20.0,37,24,11,0.00,40.00,8,2,9,0.00
2013-2-16,79.0,68.9,55.0,25.0,16.1,6.0,30,14,6,0.00,40.00,19,8,24,0.00
2013-2-17,81.0,62.7,46.0,31.0,20.0,10.0,37,22,8,0.00,40.00,11,2,12,0.00
2013-2-18,80.0,64.4,47.0,33.0,25.3,19.0,43,25,11,0.00,40.00,8,2,9,0.00
2013-2-19,70.0,57.5,43.0,54.0,39.3,31.0,100,54,28,0.00,40.00,11,4,13,0.00
2013-2-20,60.0,52.5,46.0,43.0,35.0,27.0,84,53,29,0.00,40.00,15,5,15,0.02
2013-2-21,63.0,52.8,40.0,47.0,38.0,29.0,82,58,40,0.00,40.00,12,4,15,0.02
2013-2-22,69.0,54.4,37.0,51.0,32.7,19.0,96,53,15,0.00,40.00,8,2,9,0.00
2013-2-23,72.0,57.8,41.0,32.0,23.8,18.0,52,30,13,0.00,40.00,11,3,12,0.00
2013-2-24,64.0,56.9,50.0,29.0,12.9,7.0,42,18,11,0.00,40.00,20,9,24,0.00
2013-2-25,71.0,56.2,43.0,20.0,15.4,13.0,34,21,11,0.00,40.00,9,2,9,0.00
2013-2-26,73.0,56.6,38.0,28.0,15.9,10.0,43,22,9,0.00,40.00,13,4,14,0.00
2013-2-27,70.0,59.1,48.0,17.0,9.3,-1.0,27,15,6,0.00,40.00,12,5,18,0.00
2013-2-28,76.0,61.2,47.0,17.0,8.5,2.0,23,14,6,0.00,40.00,10,3,10,0.00
2013-3-1,85.0,65.0,47.0,29.0,18.1,7.0,31,18,7,0.00,40.00,8,2,11,0.00
2013-3-2,87.0,68.7,52.0,30.0,24.8,17.0,38,22,8,0.00,40.00,10,3,11,0.00
2013-3-3,83.0,67.7,54.0,34.0,27.3,20.0,35,24,11,0.00,40.00,7,2,7,0.00
2013-3-4,81.0,67.7,56.0,44.0,38.9,32.0,51,36,22,0.00,40.00,9,2,9,0.00
2013-3-5,82.0,68.1,53.0,45.0,39.0,34.0,57,37,20,0.00,40.00,8,3,11,0.00
2013-3-6,82.0,68.2,55.0,43.0,37.1,28.0,61,35,15,0.00,40.00,7,2,7,0.00
2013-3-7,77.0,64.9,51.0,43.0,39.3,35.0,60,41,22,0.00,40.00,7,2,10,0.00
2013-3-8,65.0,56.8,49.0,56.0,41.7,33.0,97,59,33,0.00,40.00,14,4,17,0.20
2013-3-9,71.0,57.8,44.0,43.0,39.5,37.0,80,53,32,0.00,40.00,9,3,12,0.20
2013-3-10,77.0,62.4,48.0,46.0,35.4,26.0,78,43,16,0.00,40.00,11,3,17,0.00
2013-3-11,83.0,66.2,49.0,35.0,29.6,24.0,49,29,12,0.00,40.00,9,2,10,0.00
2013-3-12,88.0,69.3,51.0,39.0,30.4,21.0,54,29,9,0.00,40.00,8,2,9,0.00
2013-3-13,94.0,74.5,55.0,38.0,31.9,23.0,44,24,8,0.00,40.00,8,2,11,0.00
2013-3-14,96.0,76.5,60.0,40.0,31.1,18.0,38,22,6,0.00,40.00,14,2,15,0.00
2013-3-15,99.0,78.7,59.0,42.0,31.8,17.0,42,22,6,0.00,40.00,8,2,10,0.00
2013-3-16,93.0,76.5,59.0,40.0,30.1,16.0,39,21,7,0.00,40.00,9,3,9,0.00
2013-3-17,93.0,78.2,62.0,48.0,31.2,16.0,40,20,6,0.00,40.00,11,4,11,0.00
2013-3-18,86.0,72.9,58.0,49.0,38.5,27.0,52,31,12,0.00,40.00,10,4,17,0.00
2013-3-19,88.0,74.8,60.0,49.0,38.6,31.0,55,30,13,0.00,40.00,9,3,9,0.00
2013-3-20,91.0,76.6,61.0,47.0,38.4,30.0,48,28,13,0.00,40.00,8,3,9,0.00
2013-3-21,88.0,75.3,66.0,43.0,36.7,31.0,37,26,13,0.00,40.00,7,3,7,0.00
2013-3-22,88.0,72.3,58.0,46.0,34.1,15.0,51,29,7,0.00,40.00,8,3,14,0.00
2013-3-23,82.0,69.9,55.0,43.0,20.6,3.0,61,22,5,0.00,40.00,12,4,13,0.00
2013-3-24,86.0,69.5,56.0,20.0,11.2,1.0,19,11,5,0.00,40.00,10,3,13,0.00
2013-3-25,91.0,71.4,53.0,25.0,16.2,7.0,26,14,6,0.00,40.00,9,2,9,0.00
2013-3-26,88.0,73.8,59.0,30.0,21.8,13.0,26,15,7,0.00,40.00,12,4,15,0.00
2013-3-27,89.0,75.1,64.0,34.0,26.2,11.0,26,17,6,0.00,40.00,9,3,10,0.00
2013-3-28,89.0,75.7,60.0,42.0,33.9,27.0,43,24,12,0.00,40.00,9,2,10,0.00
2013-3-29,91.0,75.0,56.0,39.0,32.1,23.0,48,24,10,0.00,40.00,9,2,11,0.00
2013-3-30,92.0,77.5,67.0,40.0,25.0,-99.9,33,17,6,0.00,40.00,11,3,11,0.00
2013-3-31,90.0,76.1,63.0,43.0,37.7,25.0,42,26,17,0.00,40.00,11,4,14,0.00
2013-4-1,84.0,70.2,57.0,46.0,38.1,23.0,57,34,11,0.00,40.00,10,4,13,0.00
2013-4-2,89.0,71.3,57.0,49.0,40.0,24.0,64,37,10,0.00,40.00,14,2,14,0.00
2013-4-3,95.0,77.7,58.0,44.0,33.1,22.0,47,23,8,0.00,40.00,11,2,11,0.00
2013-4-4,93.0,78.7,65.0,44.0,34.8,22.0,35,23,8,0.00,40.00,9,2,9,0.00
2013-4-5,91.0,76.9,64.0,44.0,37.2,27.0,44,27,11,0.00,40.00,10,3,10,0.00
2013-4-6,92.0,76.3,61.0,48.0,40.4,31.0,50,30,12,29.93,29.78,8,2,11,0.00
2013-4-7,91.0,78.1,65.0,51.0,43.2,36.0,52,31,16,29.85,29.66,14,4,18,0.00
2013-4-8,82.0,69.1,57.0,60.0,44.1,34.0,77,44,19,29.66,29.47,19,10,29,0.00
2013-4-9,79.0,66.0,54.0,40.0,28.5,14.0,55,30,9,29.90,29.66,15,4,15,0.00
2013-4-10,80.0,69.2,60.0,31.0,20.5,9.0,33,17,7,30.01,29.90,16,7,18,0.00
2013-4-11,87.0,74.4,58.0,25.0,19.0,12.0,25,13,7,29.95,29.68,15,7,20,0.00
2013-4-12,93.0,77.1,60.0,36.0,22.1,12.0,27,15,6,29.78,29.67,13,3,13,0.00
2013-4-13,89.0,77.7,61.0,44.0,35.1,25.0,39,23,10,29.79,29.67,16,9,21,0.00
2013-4-14,87.0,75.8,64.0,49.0,43.2,38.0,46,33,19,29.70,29.59,17,9,22,0.00
2013-4-15,86.0,71.1,62.0,56.0,49.2,39.0,79,50,24,29.74,29.64,15,7,18,0.00
2013-4-16,78.0,65.8,55.0,39.0,34.7,26.0,51,34,15,29.86,29.72,12,4,14,0.00
2013-4-17,78.0,65.2,52.0,39.0,24.4,5.0,53,27,6,30.06,29.86,11,4,12,0.00
2013-4-18,78.0,67.0,54.0,21.0,14.0,5.0,26,14,6,30.16,30.05,12,6,15,0.00
2013-4-19,88.0,70.5,53.0,23.0,14.4,4.0,25,13,5,30.14,29.93,9,3,12,0.00
2013-4-20,95.0,76.0,56.0,30.0,21.3,12.0,27,15,6,29.93,29.84,8,2,11,0.00
2013-4-21,94.0,80.1,61.0,34.0,18.7,9.0,24,12,5,29.96,29.84,11,4,14,0.00
2013-4-22,93.0,79.2,63.0,27.0,20.3,12.0,23,12,6,29.88,29.71,15,6,19,0.00
2013-4-23,94.0,77.9,62.0,41.0,22.6,2.0,33,16,5,29.85,29.73,11,4,15,0.00
2013-4-24,92.0,77.6,60.0,39.0,24.2,3.0,29,14,7,29.86,29.74,14,5,18,0.00
2013-4-25,84.0,73.1,60.0,50.0,40.5,22.0,66,33,14,29.97,29.75,13,6,19,0.00
2013-4-26,93.0,78.5,60.0,48.0,40.0,31.0,53,29,12,30.09,29.97,9,3,11,0.00
2013-4-27,101.0,82.2,63.0,44.0,32.0,16.0,45,21,5,30.02,29.84,11,3,13,0.00
2013-4-28,106.0,87.3,67.0,33.0,22.3,13.0,26,11,4,29.87,29.70,9,2,10,0.00
2013-4-29,104.0,89.4,74.0,32.0,23.0,13.0,19,10,5,29.75,29.60,13,4,13,0.00
2013-4-30,97.0,87.1,73.0,30.0,20.7,12.0,16,9,5,29.71,29.61,21,9,21,0.00
2013-5-1,97.0,83.5,68.0,47.0,32.8,4.0,42,20,5,29.97,29.68,16,5,20,0.00
2013-5-2,92.0,80.9,71.0,19.0,8.6,1.0,13,7,5,30.13,29.97,13,6,15,0.00
2013-5-3,97.0,81.5,62.0,22.0,16.1,9.0,19,9,5,29.98,29.74,21,7,26,0.00
2013-5-4,94.0,81.1,65.0,47.0,26.7,12.0,35,16,6,29.75,29.60,17,6,18,0.00
2013-5-5,90.0,77.1,67.0,47.0,36.3,20.0,39,24,9,29.85,29.72,17,5,20,0.00
2013-5-6,85.0,72.4,59.0,49.0,45.8,42.0,61,40,23,29.95,29.84,11,3,16,0.00
2013-5-7,82.0,70.9,62.0,49.0,44.9,41.0,57,41,25,29.99,29.88,12,4,15,0.00
2013-5-8,83.0,71.1,58.0,46.0,40.8,35.0,57,36,18,30.01,29.91,7,2,8,0.00
2013-5-9,89.0,75.2,61.0,49.0,42.5,33.0,57,35,15,29.98,29.86,10,3,11,0.00
2013-5-10,97.0,80.2,65.0,51.0,39.5,-99.9,55,29,8,29.98,29.87,10,3,12,0.00
2013-5-11,98.0,85.1,69.0,46.0,32.6,-99.9,37,18,7,30.00,29.91,14,4,17,0.00
2013-5-12,103.0,89.6,74.0,34.0,26.6,18.0,22,12,6,30.03,29.86,13,3,13,0.00
2013-5-13,107.0,90.2,73.0,41.0,27.5,18.0,27,12,5,29.95,29.80,12,2,16,0.00
2013-5-14,102.0,89.8,79.0,44.0,34.3,26.0,27,15,7,29.89,29.77,17,7,18,0.00
2013-5-15,100.0,86.5,71.0,53.0,38.4,20.0,50,22,6,29.91,29.75,12,4,14,0.00
2013-5-16,99.0,80.4,69.0,47.0,24.6,-99.9,39,21,6,29.83,29.68,16,4,19,0.00
2013-5-17,95.0,80.9,71.0,46.0,34.5,-99.9,41,23,8,29.86,29.75,11,3,17,0.00
2013-5-18,94.0,79.6,66.0,48.0,41.3,28.0,46,29,11,29.91,29.81,10,3,15,0.00
2013-5-19,97.0,84.4,70.0,46.0,39.3,31.0,37,22,10,29.87,29.75,11,4,13,0.00
2013-5-20,98.0,84.0,68.0,46.0,28.6,16.0,41,17,6,29.89,29.79,13,4,16,0.00
2013-5-21,103.0,86.2,66.0,35.0,22.5,16.0,23,11,5,29.84,29.67,14,3,17,0.00
2013-5-22,101.0,87.0,72.0,45.0,31.1,19.0,29,15,6,29.72,29.57,15,5,23,0.00
2013-5-23,98.0,83.3,68.0,55.0,22.1,8.0,43,14,5,29.80,29.68,13,4,15,0.00
2013-5-24,95.0,80.3,63.0,52.0,39.1,16.0,50,27,6,29.87,29.76,14,4,15,0.00
2013-5-25,95.0,82.4,66.0,51.0,34.7,23.0,43,20,8,29.89,29.78,13,4,18,0.00
2013-5-26,96.0,81.3,66.0,55.0,31.9,13.0,41,21,6,29.93,29.80,10,3,11,0.00
2013-5-27,97.0,83.1,72.0,55.0,37.7,24.0,51,23,8,29.87,29.69,10,3,13,0.00
2013-5-28,97.0,84.0,71.0,51.0,40.4,34.0,38,23,12,29.72,29.56,11,5,14,0.00
2013-5-29,97.0,84.4,72.0,54.0,47.3,40.0,46,29,14,29.72,29.61,16,6,22,0.00
2013-5-30,92.0,83.3,71.0,56.0,50.4,40.0,45,33,22,29.78,29.66,20,8,20,0.00
2013-5-31,102.0,87.0,68.0,57.0,50.6,45.0,59,32,15,29.84,29.73,11,2,12,0.00
2013-6-1,108.0,89.6,72.0,53.0,44.9,29.0,47,26,7,29.77,29.65,8,1,10,0.00
2013-6-2,104.0,91.2,76.0,46.0,34.2,20.0,31,16,6,29.71,29.59,18,7,23,0.00
2013-6-3,100.0,88.0,74.0,47.0,37.4,21.0,34,18,6,29.75,29.62,16,7,19,0.00
2013-6-4,99.0,86.1,71.0,48.0,38.7,26.0,40,21,8,29.80,29.70,12,4,16,0.00
2013-6-5,106.0,90.4,70.0,44.0,30.3,19.0,36,15,5,29.84,29.71,8,3,9,0.00
2013-6-6,110.0,94.5,75.0,37.0,27.9,21.0,22,11,5,29.77,29.65,10,4,10,0.00
2013-6-7,111.0,94.7,77.0,39.0,25.6,16.0,24,10,5,29.72,29.61,12,4,16,0.00
2013-6-8,100.0,91.5,79.0,56.0,39.2,16.0,36,18,6,29.76,29.63,18,9,21,0.00
2013-6-9,100.0,89.7,73.0,51.0,31.6,14.0,40,15,6,29.83,29.73,17,6,17,0.00
2013-6-10,105.0,90.5,70.0,41.0,25.2,16.0,32,12,5,29.80,29.71,15,6,19,0.00
2013-6-11,110.0,95.1,77.0,44.0,27.0,18.0,20,10,4,29.84,29.74,7,2,8,0.00
2013-6-12,103.0,90.9,80.0,49.0,40.7,34.0,30,18,10,29.86,29.76,14,5,17,0.00
2013-6-13,102.0,90.8,79.0,51.0,42.3,34.0,36,20,10,29.88,29.74,14,5,15,0.00
2013-6-14,101.0,87.9,75.0,47.0,39.9,21.0,36,20,6,29.82,29.68,13,5,15,0.00
2013-6-15,101.0,85.6,74.0,45.0,34.7,21.0,33,19,6,29.82,29.72,13,4,13,0.00
2013-6-16,107.0,92.6,78.0,38.0,24.7,13.0,16,10,4,29.89,29.78,8,3,10,0.00
2013-6-17,107.0,90.2,74.0,40.0,30.4,18.0,27,14,5,29.86,29.73,10,3,11,0.00
2013-6-18,106.0,88.6,72.0,39.0,29.6,18.0,29,15,5,29.79,29.66,11,3,13,0.00
2013-6-19,107.0,89.2,77.0,44.0,29.5,15.0,24,14,4,29.73,29.64,12,3,13,0.00
2013-6-20,101.0,86.3,76.0,49.0,40.7,30.0,37,23,9,29.76,29.68,9,4,10,0.00
2013-6-21,99.0,99.0,99.0,40.0,40.0,40.0,13,13,13,29.67,29.67,8,8,8,0.00
2013-6-22,103.0,95.9,86.0,49.0,41.0,33.0,27,16,9,29.80,29.67,11,6,17,0.00
2013-6-23,101.0,88.5,73.0,45.0,41.0,38.0,31,20,12,29.72,29.61,14,6,18,0.00
2013-6-24,101.0,83.6,72.0,50.0,44.7,34.0,40,27,10,29.80,29.68,11,2,11,0.00
2013-6-25,100.0,86.5,73.0,60.0,48.5,40.0,44,29,13,29.87,29.77,12,3,12,0.00
2013-6-26,100.0,94.8,89.0,47.0,39.7,35.0,24,15,11,29.93,29.84,13,9,14,0.00
2013-6-27,104.0,85.6,73.0,54.0,38.7,-99.9,33,23,15,29.97,29.87,12,4,15,0.00
2013-6-28,105.0,93.4,84.0,53.0,48.7,40.0,30,23,13,29.88,29.75,7,2,9,0.00
2013-6-29,106.0,97.2,89.0,55.0,47.0,40.0,24,19,12,29.76,29.67,17,7,22,0.00
2013-6-30,108.0,96.8,87.0,60.0,54.7,51.0,35,25,16,29.78,29.66,23,9,23,0.00
2013-7-1,108.0,94.7,89.0,61.0,57.4,48.0,38,30,14,29.83,29.71,23,9,28,0.00
2013-7-2,104.0,94.2,88.0,65.0,58.2,50.0,45,31,17,29.96,29.76,22,11,24,0.00
2013-7-3,107.0,98.9,90.0,58.0,51.3,43.0,32,21,12,29.80,29.64,15,10,15,0.00
2013-7-4,103.0,96.3,88.0,64.0,58.3,53.0,42,29,21,29.74,29.63,26,17,30,0.00
2013-7-5,101.0,93.7,84.0,63.0,54.8,44.0,43,29,16,29.76,29.66,17,9,19,0.00
2013-7-6,104.0,87.5,79.0,49.0,45.7,43.0,32,25,13,29.72,29.67,9,3,10,0.00
2013-7-7,102.0,88.8,79.0,54.0,49.1,42.0,40,27,13,29.73,29.65,8,1,8,0.00
2013-7-8,106.0,94.0,89.0,62.0,53.2,-99.9,33,27,17,29.85,29.72,14,7,19,0.00
2013-7-9,99.0,90.5,84.0,74.0,66.7,57.0,71,47,31,29.99,29.84,23,13,26,0.00
2013-7-10,99.0,88.9,83.0,72.0,63.2,-99.9,68,45,29,29.95,29.81,21,12,28,0.00
2013-7-11,100.0,87.8,76.0,74.0,66.0,57.0,89,52,26,29.90,29.79,13,6,19,0.35
2013-7-12,104.0,91.1,79.0,68.0,60.5,52.0,60,39,19,29.87,29.73,11,4,13,0.35
2013-7-13,107.0,95.7,82.0,63.0,57.8,53.0,50,30,18,29.87,29.74,11,5,15,0.00
2013-7-14,108.0,95.6,88.0,65.0,58.6,53.0,46,30,17,29.84,29.71,11,5,13,0.00
2013-7-15,103.0,94.0,89.0,62.0,58.3,47.0,38,31,16,29.77,29.65,15,6,15,0.00
2013-7-16,100.0,93.0,86.0,67.0,57.9,41.0,48,32,16,29.89,29.73,11,5,12,0.00
2013-7-17,107.0,92.6,83.0,66.0,59.0,48.0,51,35,17,29.94,29.82,8,2,8,0.00
2013-7-18,108.0,94.7,85.0,66.0,54.6,47.0,41,27,15,29.87,29.73,15,4,15,0.00
2013-7-19,96.0,88.8,84.0,75.0,69.6,61.0,72,54,37,29.90,29.76,18,12,25,0.00
2013-7-20,99.0,88.2,78.0,77.0,70.5,66.0,94,58,37,29.87,29.72,15,7,16,0.14
2013-7-21,93.0,83.7,76.0,79.0,73.4,66.0,98,73,50,29.88,29.76,14,5,15,0.12
2013-7-22,97.0,86.5,79.0,77.0,71.1,65.0,89,63,36,29.93,29.84,12,4,14,0.68
2013-7-23,103.0,92.3,82.0,73.0,64.7,59.0,68,42,25,29.93,29.78,12,4,15,0.00
2013-7-24,108.0,96.2,84.0,66.0,60.1,55.0,53,32,18,29.86,29.73,12,5,15,0.00
2013-7-25,101.0,91.6,82.0,72.0,64.4,54.0,69,42,29,29.94,29.79,12,4,20,0.10
2013-7-26,104.0,94.6,86.0,72.0,61.9,54.0,62,37,20,29.98,29.87,11,4,12,0.12
2013-7-27,107.0,97.3,85.0,63.0,56.0,50.0,45,27,19,29.92,29.72,15,5,17,0.00
2013-7-28,107.0,93.9,85.0,59.0,51.6,35.0,40,26,12,29.79,29.73,9,4,10,0.00
2013-7-29,102.0,90.6,80.0,61.0,47.0,37.0,40,23,16,29.90,29.77,14,5,14,0.00
2013-7-30,98.0,92.0,87.0,51.0,49.4,44.0,28,24,16,29.94,29.90,15,8,16,0.00
2013-7-31,102.0,89.7,81.0,57.0,51.5,43.0,43,29,14,29.97,29.84,7,1,9,0.00
2013-8-1,105.0,99.1,87.0,46.0,45.0,43.0,22,16,13,29.82,29.73,12,7,14,0.00
2013-8-2,102.0,94.0,82.0,55.0,44.9,34.0,37,20,11,29.84,29.76,13,8,13,0.00
2013-8-3,105.0,94.8,74.0,49.0,41.0,25.0,40,17,8,29.88,29.78,12,7,13,0.00
2013-8-4,106.0,87.2,78.0,56.0,46.4,25.0,39,27,6,29.88,29.81,11,3,13,0.00
2013-8-5,100.0,95.8,90.0,72.0,61.2,50.0,56,34,20,29.91,29.82,17,13,19,0.00
2013-8-6,101.0,92.6,86.0,64.0,58.3,49.0,46,33,21,29.95,29.83,13,9,16,0.00
2013-8-7,105.0,92.1,85.0,60.0,50.5,20.0,43,29,5,29.93,29.83,11,6,11,0.00
2013-8-8,107.0,87.5,81.0,52.0,41.3,25.0,29,21,6,29.86,29.76,7,2,8,0.00
2013-8-9,105.0,89.3,76.0,54.0,36.6,24.0,31,18,6,29.82,29.75,11,4,14,0.00
2013-8-10,95.0,83.4,76.0,61.0,48.6,23.0,43,32,9,29.91,29.82,11,3,11,0.00
2013-8-11,105.0,85.0,75.0,44.0,38.8,25.0,28,20,6,29.86,29.79,8,4,9,0.00
2013-8-21,108.0,96.8,87.0,64.0,55.3,46.0,37,26,13,29.83,29.73,12,6,14,0.00
2013-8-22,103.0,90.8,79.0,74.0,66.9,59.0,81,49,24,29.87,29.74,16,5,20,0.01
2013-8-23,101.0,92.8,80.0,76.0,67.4,61.0,88,46,27,29.83,29.67,12,4,16,0.00
2013-8-24,98.0,87.5,80.0,76.0,64.7,-99.9,75,50,34,29.88,29.75,14,8,15,0.01
2013-8-25,87.0,82.6,78.0,74.0,71.7,68.0,82,70,54,29.96,29.85,9,3,10,0.01
2013-8-26,100.0,85.7,74.0,75.0,71.5,66.0,94,67,35,29.93,29.77,9,4,11,0.06
2013-8-27,103.0,86.3,79.0,74.0,69.8,67.0,77,60,32,29.81,29.78,9,6,10,0.16
2013-11-16,73.0,63.3,55.0,45.0,40.3,-99.9,63,46,32,29.85,29.66,9,2,9,0.00
2013-11-17,72.0,62.6,53.0,52.0,46.3,40.0,64,56,45,30.00,29.85,10,2,10,0.00
2013-11-18,78.0,65.0,54.0,51.0,48.0,46.0,77,56,36,30.06,29.94,7,1,7,0.00
2013-11-19,74.0,64.9,56.0,50.0,48.5,46.0,75,57,41,29.98,29.83,7,1,7,0.00
2013-11-20,75.0,66.4,57.0,60.0,48.9,45.0,86,55,36,29.86,29.77,6,2,7,0.00
2013-11-21,73.0,63.5,56.0,59.0,54.8,50.0,100,74,54,29.88,29.79,7,2,12,0.63
2013-11-22,59.0,55.6,52.0,58.0,55.4,52.0,100,99,93,30.13,29.76,0,0,0,0.27
2013-11-24,63.0,58.4,53.0,52.0,50.4,49.0,91,75,64,30.08,30.03,7,2,9,0.18
2013-11-25,66.0,56.6,49.0,50.0,47.9,43.0,100,75,46,30.13,30.06,10,2,11,0.09
2013-11-26,69.0,60.6,53.0,51.0,47.6,45.0,87,64,43,30.14,30.01,11,4,11,0.00
2013-11-27,63.0,61.2,57.0,50.0,38.0,35.0,78,43,37,30.00,29.92,14,11,17,0.00
2013-11-28,60.0,59.7,59.0,46.0,39.3,36.0,61,47,40,29.96,29.84,4,3,4,0.00
2013-11-29,59.0,53.7,51.0,50.0,47.4,45.0,88,79,61,30.01,29.96,0,0,0,0.00
2013-12-7,59.0,51.4,40.0,41.0,31.9,-99.9,79,52,36,29.99,29.85,6,1,8,0.00
2013-12-8,56.0,51.4,46.0,40.0,25.7,15.0,66,39,25,30.05,29.91,11,4,12,0.00
2013-12-9,51.0,46.5,40.0,16.0,11.2,8.0,38,24,18,30.27,30.06,15,8,19,0.00
2013-12-10,56.0,47.7,41.0,16.0,12.7,9.0,32,25,17,30.25,30.03,9,4,13,0.00
2013-12-11,62.0,53.8,44.0,23.0,18.4,14.0,35,25,17,30.12,30.02,9,4,12,0.00
2013-12-12,59.0,52.9,47.0,31.0,26.1,21.0,46,36,25,30.06,30.01,2,0,2,0.00
2013-12-13,68.0,55.8,43.0,39.0,34.9,31.0,74,48,26,30.09,29.98,3,0,4,0.00
2013-12-30,66.0,55.4,48.0,29.0,22.0,16.0,48,28,16,30.16,30.05,5,2,7,0.00
2013-12-31,67.0,53.7,44.0,31.0,26.8,19.0,52,38,16,30.11,29.99,9,2,12,0.00
2014-1-1,70.0,57.4,46.0,29.0,26.3,20.0,51,33,15,30.06,29.97,6,2,7,0.00
2014-1-2,74.0,62.6,50.0,32.0,28.7,24.0,43,29,16,30.03,29.93,6,2,10,0.00